Location: Karcze
(52.0945°N, 22.4786°E)
Time: 12:32:16
(UTC+00:00)

Cosmos 1437 Rocket - Pass Details

Date: 14 July 2020
Orbit: 506 x 562 km, 81.2° (Epoch: 07 August)

Event Time Altitude Azimuth Distance (km) Brightness Sun altitude
Rises 00:29:02 0° 343° (NNW) 2,747 7.1 -12.2°
Reaches altitude 10° 00:31:16 10° 338° (NNW) 1,839 6.1 -12.1°
Maximum altitude 00:35:11 49° 263° (W) 707 3.1 -11.8°
Enters shadow 00:38:04 17° 193° (SSW) 1,428 4.3 -11.6°
